Location: Hanover
(52.3667°N, 9.7167°E)
Time: 02:42:28
(UTC+01:00)

CUBESAT XI-V - Pass Details

Date: 15 November 2024
Orbit: 651 x 673 km, 98.2° (Epoch: 08 December)

Event Time Altitude Azimuth Distance (km) Brightness Sun altitude
Rises 17:04:52 0° 6° (N) 3,034 ? -5.9°
Reaches altitude 10° 17:07:32 10° 351° (N) 2,112 ? -6.2°
Maximum altitude 17:10:59 21° 302° (WNW) 1,483 ? -6.7°
Drops below altitude 10° 17:14:24 10° 253° (WSW) 2,091 ? -7.2°
Sets 17:17:02 0° 238° (WSW) 2,995 ? -7.6°
